Location: Allens Chapel
(37.8489°N, 88.7392°W)
Time: 01:39:58
(UTC+00:00)

Daily predictions for brighter satellites

Satellite Brightness Start Highest point End
(mag) Time Altitude Azimuth Time Altitude Azimuth Time Altitude Azimuth
Cosmos 2061 Rocket 4.2 01:25:49 10° S 01:32:01 80° W 01:38:14 10° N
IRS-1C Rocket 4.1 01:29:58 10° SSE 01:35:13 83° ENE 01:40:30 10° NNW
CENTAUR R/B 3.4 01:26:54 10° NNW 01:35:24 89° ENE 01:44:31 10° SSE
CSL-04 Rocket 3.7 01:32:08 10° SSE 01:37:24 81° ENE 01:42:47 10° N
Cosmos 2227 Rocket 3.0 01:36:07 10° N 01:41:19 35° ENE 01:46:27 10° SE
SL-4 R/B 3.9 01:37:57 10° NNW 01:41:50 26° NNE 01:45:30 10° E
Ariane Rocket 4.4 01:38:45 10° ESE 01:42:34 22° ENE 01:46:24 10° NNE
Cosmos 1400 Rocket 4.1 01:39:13 10° NNW 01:42:53 42° W 01:46:35 10° SSW
Cosmos 1544 2.9 01:41:33 10° N 01:45:04 69° E 01:48:33 10° SSE
USA 238 DEB 4.1 01:39:24 10° NNW 01:46:47 70° NE 01:54:29 10° SE
Cosmos 1980 Rocket 3.2 01:42:21 10° SSE 01:46:50 25° ESE 01:51:22 10° NE
USA 238 4.1 01:39:31 10° NNW 01:46:54 70° NE 01:54:36 10° SE
Cosmos 1151 Rocket 3.0 01:45:40 10° S 01:49:57 89° WNW 01:54:13 10° N
Resurs 1-3 3.6 01:49:24 10° SSE 01:53:44 67° ENE 01:58:06 10° N
Cosmos 2369 4.3 01:49:27 10° SSE 01:54:29 35° ESE 01:59:33 10° NE
ASTRO E2 3.6 01:51:27 10° WSW 01:54:56 31° S 01:57:52 13° SE
Cosmos 1666 Rocket 3.6 01:52:35 10° N 01:56:59 70° E 02:01:24 10° SSE
Gbstr 26 Del rocket 4.3 01:50:19 10° NW 01:57:46 69° SW 02:03:33 12° SE
Cosmos 44 3.5 01:55:31 10° NW 01:59:45 57° WSW 02:04:01 10° SSE
SJ 16-02 2.8 02:03:00 14° SE 02:04:59 18° E 02:08:00 10° NE
Cosmos 1697 Rocket 2.7 02:00:07 10° SSW 02:05:45 80° ESE 02:11:27 10° NNE
Cosmos 1633 Rocket 3.0 02:01:32 10° N 02:05:54 71° E 02:10:13 10° SSE
JB-3 4.4 02:02:47 10° NNE 02:06:58 89° ESE 02:11:06 10° SSW
Cosmos 2360 4.2 02:02:51 10° SSW 02:08:31 79° ESE 02:14:13 10° NNE
H-2A R/B 3.7 02:06:20 10° S 02:10:31 43° W 02:14:38 10° NNW
OAO 3 Rocket 3.3 02:06:08 10° W 02:10:59 63° S 02:15:07 14° ESE
CZ-4 R/B 4.3 02:09:47 10° WSW 02:11:31 12° W 02:13:17 10° WNW
Landsat 7 3.8 02:07:50 10° SSE 02:12:32 84° ENE 02:17:16 10° N
Cosmos 1570 Rocket 4.3 02:08:50 10° NNW 02:14:03 70° WSW 02:19:15 10° S
ATLAS CENTAUR Rocket 3.6 02:04:32 10° SW 02:15:25 25° S 02:18:22 17° SE
Cosmos 1470 Rocket 3.7 02:12:16 10° N 02:16:30 52° E 02:19:36 17° SSE
Cosmos 2297 Rocket 2.3 02:12:44 10° NNW 02:18:23 75° WSW 02:23:35 12° SSE
Cosmos 1486 Rocket 4.0 02:13:36 10° SSW 02:18:55 86° ESE 02:24:13 10° NNE
Cosmos 1515 3.6 02:15:54 10° S 02:19:36 63° E 02:23:20 10° NNE
Resurs 01 Rocket 1.7 02:16:11 16° SSE 02:19:39 62° ENE 02:24:00 10° N
ARGOS Delta rocket 4.1 02:18:14 10° NNE 02:23:44 76° E 02:29:05 10° S
Cosmos 1315 Rocket 3.5 02:20:55 10° NNW 02:24:53 54° W 02:28:47 10° S
Cosmos 1515 Rocket 3.5 02:22:20 10° S 02:26:39 74° E 02:31:03 10° N
USA 129 3.9 02:28:08 11° W 02:28:08 11° W 02:28:26 10° W
Cosmos 389 Rocket 2.9 02:28:27 10° N 02:31:49 43° ENE 02:33:03 30° SE
Cosmos 1340 2.5 02:28:29 11° S 02:31:59 81° E 02:35:44 10° N
Cosmos 405 3.0 02:29:00 10° NNW 02:32:25 75° W 02:34:34 21° S
SL-16 R/B 3.8 02:33:55 15° E 02:33:55 15° E 02:36:51 10° ENE
Cosmos 1184 Rocket 2.4 02:33:05 26° S 02:34:37 72° E 02:37:38 10° NNE
EXPRESS MD2 4.5 02:32:55 10° NW 02:38:18 39° NNE 02:40:15 20° E
Cosmos 2228 Rocket 4.1 02:37:13 25° ESE 02:38:30 29° E 02:42:26 10° NNE
Cosmos 921 Rocket 3.9 02:35:03 10° N 02:39:14 36° ENE 02:40:56 26° ESE
CARTOSAT-1 4.0 02:38:19 27° SE 02:40:12 45° ENE 02:44:20 10° N
Meteor 1-27 Rocket 3.9 02:34:54 10° SSW 02:40:38 80° W 02:46:32 10° N
Cosmos 1743 2.5 02:39:50 10° N 02:43:37 75° E 02:45:13 33° SSE
ATLAS 2AS CENTAUR R/B 2.9 02:37:32 10° SSW 02:45:15 67° ESE 02:52:50 10° NE
Cosmos 1503 Rocket 4.0 02:42:47 10° SSW 02:48:02 89° WNW 02:53:23 10° NNE
CZ-4B R/B 3.2 02:46:53 10° N 02:49:43 30° WNW 02:52:30 10° SW
Cosmos 2278 3.7 02:48:35 14° S 02:53:22 58° ESE 02:58:57 10° NNE
USA 245 4.4 02:51:12 28° SSE 02:54:20 66° ENE 03:00:35 10° N
ERS-1 Rocket 3.9 02:52:45 26° ESE 02:54:26 33° ENE 02:58:56 10° N
Cosmos 2219 3.5 02:50:51 10° NNW 02:56:23 61° WSW 02:59:50 23° S
SPOT 1/Viking Rocket 3.8 02:53:29 21° S 02:57:00 68° WSW 03:02:09 10° NNW
Meteor 1-11 Rocket 4.3 02:52:23 10° NNW 02:58:14 58° W 03:03:02 15° S
Cosmos 1809 Rocket 4.4 02:53:33 10° N 02:59:41 70° E 03:02:53 30° SSE
ARIANE 5 R/B 4.1 03:00:48 21° E 03:01:33 22° ENE 03:05:00 10° NNE
Cosmos 2082 3.6 02:58:08 10° NNW 03:03:47 77° ENE 03:06:11 36° SSE
Cosmos 1464 Rocket 4.4 02:58:41 10° SSW 03:04:50 63° W 03:10:57 10° N
Cosmos 2263 Rocket 2.8 03:03:28 10° N 03:08:43 40° ENE 03:10:33 31° ESE
Okean 1 3.3 03:09:20 38° SSW 03:10:47 79° W 03:14:49 10° N
Cosmos 1536 4.0 03:07:54 10° NNW 03:11:40 39° W 03:13:44 22° SSW
RESURS DK-1 2.3 03:09:41 26° SSW 03:11:57 84° WNW 03:16:05 10° NNE
Cosmos 1378 3.4 03:16:09 50° ENE 03:16:09 50° ENE 03:19:19 10° NNE
Cosmos 2344 4.1 03:08:38 10° SW 03:16:09 58° NW 03:23:34 10° NNE
ATLAS 3B R/B 4.2 03:10:13 10° NNW 03:16:29 29° NE 03:21:03 17° E
Ariane Rocket 4.0 03:18:14 21° SSW 03:21:13 41° W 03:26:00 10° NNW
SL-4 R/B 2.0 03:17:18 10° NW 03:21:46 71° SW 03:22:14 64° S
Cosmos 1092 Rocket 4.0 03:17:27 10° N 03:23:35 62° E 03:25:30 42° SE
Nadezhda 4 Rocket 4.1 03:18:59 10° N 03:25:11 72° W 03:28:17 31° S
Cosmos 2227 Rocket 3.7 03:20:21 10° NW 03:25:12 30° WSW 03:28:30 17° SSW
Cosmos 1634 Rocket 4.0 03:23:39 41° SSE 03:25:43 61° E 03:31:49 10° NNE
CZ-2C R/B 3.7 03:21:12 10° NNE 03:25:59 79° ESE 03:27:10 51° S
Cosmos 1980 Rocket 3.4 03:25:16 10° SW 03:30:32 41° WNW 03:35:53 10° N
Gblst 52 Del rocket 4.5 03:24:45 10° SSW 03:31:36 57° SE 03:37:34 10° ENE
SPOT 5 3.0 03:34:23 51° S 03:35:48 84° WSW 03:41:01 10° NNW
Cosmos 2322 Rocket 2.7 03:38:50 40° E 03:38:50 40° E 03:43:37 10° NE
ISS -1.7 03:36:43 10° NNW 03:39:23 21° NNE 03:39:31 21° NNE
Cosmos 1733 Rocket 3.9 03:36:01 10° N 03:39:49 38° ENE 03:39:49 38° ENE
Terra 1.7 03:40:18 67° ESE 03:40:45 74° ENE 03:45:31 10° N
Cosmos 1975 3.0 03:37:21 10° N 03:41:00 64° NE 03:41:00 64° NE
Cosmos 2333 Rocket 4.4 03:43:38 11° ENE 03:43:38 11° ENE 03:44:03 10° ENE
Helios 1A Rocket 3.4 03:41:33 48° WSW 03:41:51 49° W 03:45:45 10° NNW
Meteor 2-4 Rocket 3.7 03:40:03 46° S 03:41:53 87° E 03:47:36 10° N
SJ 16-02 2.9 03:39:52 13° SW 03:43:15 33° WNW 03:47:13 10° N
Timation 2 Rocket 4.3 03:38:20 10° NNW 03:44:54 65° WSW 03:47:16 41° S
SL-24 R/B - RUBIN 2 4.5 03:41:45 10° NNW 03:45:53 38° NE 03:46:07 38° ENE
H-2A ROCKET BODY 4.3 02:46:24 10° W 03:47:31 58° SSW 03:52:59 37° SE
Cosmos 1844 Rocket 4.5 03:44:29 10° N 03:48:21 19° NE 03:49:50 17° ENE
Cosmos 1862 Rocket 4.0 03:49:17 51° ENE 03:49:17 51° ENE 03:53:02 10° NNE
Cosmos 2026 Rocket 3.9 03:43:38 10° N 03:49:50 86° E 03:51:25 54° SSE
OAO 3 Rocket 4.3 03:49:37 10° W 03:52:53 33° SW 03:52:53 33° SW
Spot 2 Rocket 4.0 03:53:55 44° SW 03:54:56 51° W 03:59:50 10° NNW
Resurs 01 Rocket 4.4 03:55:52 10° W 03:56:30 10° W 03:57:09 10° W
Cosmos 2219 Rocket 4.3 04:06:18 13° ENE 04:06:18 13° ENE 04:07:15 10° ENE
Cosmos 2227 4.1 04:02:15 10° NNW 04:08:03 84° ENE 04:08:34 74° SE
USA 215 3.1 04:03:18 10° NE 04:09:49 65° SE 04:10:52 57° S
Cosmos 2237 4.0 04:17:01 82° SE 04:17:11 83° ESE 04:22:55 10° NNE
SL-16 R/B 2.4 04:15:41 47° SW 04:17:11 66° WNW 04:22:51 10° NNE
Cosmos 1346 Rocket 4.2 04:21:06 34° WNW 04:21:06 34° WNW 04:24:32 10° N
Cosmos 2266 Rocket 4.4 04:19:26 10° N 04:25:25 47° ENE 04:25:37 47° E
Cosmos 2279 Rocket 4.2 04:28:04 54° SW 04:29:16 66° W 04:35:27 10° N
Okean 1-7 4.3 04:32:39 35° NNE 04:32:39 35° NNE 04:35:19 10° NNE
ERS-1 Rocket 4.5 04:32:44 25° WSW 04:33:13 25° W 04:37:22 10° NW
Cosmos 44 Rocket 4.0 04:30:55 10° NW 04:34:29 47° WNW 04:34:29 47° WNW
ARIANE 5 R/B 4.1 04:38:20 30° W 04:38:20 30° W 04:41:47 10° NW
Meteor 2-10 4.3 04:33:13 10° N 04:37:44 58° NE 04:37:44 58° NE
Meteor 1-13 Rocket 4.2 04:40:17 79° WNW 04:40:17 79° WNW 04:45:47 10° N
Cosmos 2360 Rocket 2.2 04:43:37 78° NNE 04:43:37 78° NNE 04:48:53 10° NNE
Geosat 4.4 04:47:02 59° WNW 04:47:02 59° WNW 04:51:18 10° NNW
Cosmos 2263 Rocket 3.7 04:47:54 10° NW 04:52:15 25° W 04:52:15 25° W
Cosmos 923 Rocket 4.3 04:54:20 10° NNW 04:58:53 65° NNW 04:58:53 65° NNW
Cosmos 1937 Rocket 3.9 05:01:25 59° NNE 05:01:25 59° NNE 05:05:43 10° NNE
Meteor 1-12 Rocket 4.3 04:54:44 10° N 05:00:21 79° NW 05:00:21 79° NW
ATLAS CENTAUR R/B 3.2 04:58:03 10° N 05:01:57 29° NE 05:01:57 29° NE
ATLAS 3B R/B 2.8 05:00:22 10° NW 05:07:48 69° WSW 05:08:17 67° SW
Cosmos 2112 Rocket 4.5 05:14:57 10° NNW 05:19:14 58° NNW 05:19:14 58° NNW
Cosmos 1680 Rocket 4.1 05:16:18 10° NNW 05:20:26 54° NW 05:20:26 54° NW
Cosmos 2322 Rocket 3.9 05:20:36 22° W 05:22:33 27° WNW 05:27:14 10° N
Cosmos 2333 Rocket 2.4 05:25:36 65° NNW 05:25:36 65° NNW 05:30:39 10° NNE
Cosmos 2322 4.0 05:26:30 61° NE 05:26:30 61° NE 05:31:12 10° NNE
Cosmos 1818 4.0 05:21:25 10° NNW 05:26:00 59° N 05:26:00 59° N
ALOS 2 4.0 05:30:43 36° NNW 05:30:43 36° NNW 05:33:22 10° NNW
Cosmos 1844 Rocket 3.3 05:27:10 10° NNW 05:31:29 49° WNW 05:31:29 49° WNW
CZ-4C R/B 3.8 05:32:16 10° NNW 05:39:23 47° NE 05:43:12 30° ESE
Cosmos 2219 Rocket 2.6 05:47:59 58° NNW 05:47:59 58° NNW 05:52:54 10° NNE
USA 215 4.4 05:46:36 10° NNE 05:52:32 39° NNW 05:58:09 12° W
Lacrosse 5 4.5 05:56:03 10° E 05:56:03 10° E 05:56:10 10° ENE
ADEOS Rocket 3.1 06:03:06 62° NW 06:03:06 62° NW 06:08:05 10° NNW
ASTEX 1 4.2 06:00:03 10° N 06:03:36 48° NNE 06:03:36 48° NNE
CZ-2D R/B 4.5 06:04:53 10° ENE 06:06:25 11° E 06:06:25 11° E
Cosmos 1953 4.5 06:11:17 10° N 06:13:13 24° NNE 06:13:13 24° NNE
Cosmos 2237 Rocket 2.8 06:16:53 47° ENE 06:16:53 47° ENE 06:21:22 10° NNE
SL-08 R/B 4.5 06:10:06 10° N 06:16:05 81° NNW 06:16:05 81° NNW
COSMOS 2428 3.3 06:18:12 49° NW 06:18:12 49° NW 06:23:25 10° NNE
Cosmos 1125 Rocket 4.1 06:20:46 52° NNE 06:20:46 52° NNE 06:24:43 10° NNE
USA 267 3.2 06:24:07 65° ESE 06:25:11 80° NE 06:31:45 10° NW
USA 229 DEB 4.2 06:26:26 10° NNW 06:33:52 64° NE 06:37:09 37° ESE
USA 229 4.2 06:26:33 10° NNW 06:33:57 63° NE 06:37:17 36° ESE
Resurs 1-4 Rocket 3.8 06:31:15 10° NE 06:35:10 23° E 06:35:10 23° E
ATLAS CENTAUR R/B 4.0 06:36:52 10° NW 06:37:56 16° WNW 06:37:56 16° WNW
Cosmos 2315 Rocket 3.9 06:50:06 76° ESE 06:50:22 77° E 06:56:45 10° N
ADEOS II 4.1 06:47:33 10° NE 06:50:45 16° E 06:51:27 16° ESE
Cosmos 2278 Rocket 2.2 06:45:21 10° NNW 06:50:48 75° NE 06:50:48 75° NE
Cosmos 1709 Rocket 3.9 06:46:47 10° N 06:52:55 74° E 06:53:12 73° ESE
Cosmos 1455 Rocket 4.4 06:50:55 10° N 06:54:30 35° ENE 06:54:30 35° ENE
S3M 4.3 06:57:20 53° W 06:57:27 53° W 07:03:41 10° N
Thor Agena Rocket 3.7 06:53:03 10° NNE 06:57:54 70° ENE 06:57:54 70° ENE
NOSS 3-1 (A) 4.1 06:52:47 10° NW 07:00:38 76° WSW 07:02:42 56° S
Cosmos 332 Rocket 4.3 07:03:02 57° NNE 07:03:02 57° NNE 07:06:52 10° NNE
SL-16 R/B 2.9 07:03:37 43° ESE 07:03:37 43° ESE 07:08:52 10° NE
Cosmos 1975 Rocket 3.9 07:08:11 50° NNE 07:08:11 50° NNE 07:11:34 10° NNE
USA 308 4.4 07:07:43 32° NNW 07:07:43 32° NNW 07:10:57 10° NNE
Cosmos 1980 4.1 07:07:55 50° WNW 07:07:56 50° WNW 07:13:26 10° NNE
Cosmos 1025 Rocket 3.8 07:14:32 49° NE 07:14:32 49° NE 07:17:50 10° NNE
COSMOS 2455 3.8 07:14:13 33° ESE 07:14:47 33° ESE 07:20:05 10° NE
USA 32 4.5 07:17:18 51° WNW 07:17:18 51° WNW 07:21:52 10° N
EO 1 Delta rocket 4.3 07:13:06 10° N 07:17:23 60° NW 07:17:23 60° NW
SME Rocket 3.7 07:19:18 55° NNE 07:19:18 55° NNE 07:23:08 10° N
NOSS 2-2 (D) 4.4 07:13:46 10° NW 07:19:25 78° WSW 07:20:30 64° S
Meteor 1-24 Rocket 3.7 07:23:37 69° SE 07:24:00 72° E 07:29:30 10° NNE
Meteor 2-10 Rocket 3.6 07:20:16 10° NNW 07:25:44 74° W 07:25:44 74° W
CZ-4C R/B 3.4 07:20:49 10° NW 07:28:08 45° WSW 07:28:18 45° WSW
GP-B 4.0 07:24:36 10° N 07:27:49 40° NW 07:27:49 40° NW
Lacrosse 5 1.9 07:35:14 68° NW 07:35:21 68° NW 07:40:27 10° NE
Cosmos 1269 Rocket 4.3 07:30:09 10° NNW 07:35:25 65° ENE 07:36:35 50° SE
Molniya-1 4.2 07:36:27 65° SSE 07:37:01 72° ESE 07:47:21 10° NE
Cosmos 1544 Rocket 3.8 07:37:08 10° N 07:41:30 61° E 07:41:32 61° E
Lacrosse 5 rocket 2.0 07:43:58 50° NNE 07:43:58 50° NNE 07:47:02 10° NE
Meteor 2-5 Rocket 3.8 07:45:31 59° WSW 07:46:06 62° W 07:51:45 10° N
CZ-2D R/B 2.0 07:41:50 10° N 07:47:12 76° WNW 07:47:44 69° SW
AQUA 3.7 07:52:04 10° NNE 07:56:51 86° ESE 07:57:19 73° S
Cosmos 1703 4.3 07:56:53 37° ESE 07:57:15 38° E 08:00:54 10° NNE
Cosmos 2237 Rocket 3.8 07:58:41 19° WNW 08:00:14 21° NW 08:04:30 10° N
Cosmos 2154 Rocket 4.2 08:00:11 10° N 08:06:32 72° E 08:10:14 26° SSE
Resurs 1-4 Rocket 2.7 08:10:25 10° N 08:15:17 39° WNW 08:16:15 36° W
CRYOSAT 2 4.2 08:15:47 55° SSW 08:16:45 73° W 08:21:38 10° N
SL-16 R/B 2.5 08:15:02 40° SSW 08:17:16 64° WSW 08:23:28 10° NNW
EO 1 Del DPAF 3.0 08:18:12 10° N 08:21:33 75° NW 08:21:33 75° NW
Cosmos 1943 Rocket 2.1 08:16:53 10° NNW 08:22:32 69° WSW 08:25:08 33° S
Cosmos 292 Rocket 3.7 08:22:07 53° SW 08:23:08 72° WNW 08:27:56 10° NNE
Meteor 1-28 Rocket 3.0 08:23:04 75° S 08:23:21 88° WSW 08:27:06 10° NNW
Cosmos 2297 3.6 08:18:26 10° NNW 08:24:12 87° WSW 08:28:41 17° SSE
Cosmos 2074 Rocket 4.2 08:24:16 10° NNW 08:30:19 50° W 08:32:36 35° SW
ADEOS II 2.3 08:25:36 10° N 08:30:44 56° WNW 08:32:22 39° SW
IDEFIX/ARIANE 42P 2.6 08:25:57 10° N 08:31:12 68° WNW 08:33:04 39° SW
Cosmos 2228 3.3 08:27:51 10° N 08:32:11 68° E 08:34:33 26° SSE
Cosmos 2278 Rocket 4.3 08:32:06 10° WNW 08:32:36 11° WNW 08:32:36 11° WNW
Cosmos 1536 Rocket 4.1 08:36:38 37° W 08:37:13 39° W 08:41:21 10° N
Cosmos 1295 Rocket 4.5 08:31:31 10° NNW 08:37:49 70° W 08:41:44 24° S
Cosmos 2327 Rocket 4.5 08:31:29 10° N 08:37:53 80° W 08:42:28 20° S
NOSS 3-3 (A) 3.7 08:35:52 35° SSW 08:38:20 81° ESE 08:44:32 10° NE
NOSS 3-3 (C) 3.7 08:35:58 35° SSW 08:38:26 80° ESE 08:44:38 10° NE
OAO 2 Rocket 3.9 08:38:02 35° S 08:38:55 38° SSE 08:43:28 10° E
Meteor 1-21 Rocket 4.1 08:41:20 28° S 08:44:28 87° W 08:50:05 10° N
Cosmos 614 Rocket 3.9 08:39:23 10° NNW 08:44:32 67° WSW 08:48:08 20° S
IRS-1D 3.5 08:41:34 10° NNE 08:46:55 83° WNW 08:49:47 28° SSW
Cosmos 1455 3.6 08:44:00 10° NW 08:46:22 23° WNW 08:46:22 23° WNW
DNEPR-1 R/B 3.5 08:45:34 38° SSW 08:47:06 74° ESE 08:51:32 10° NE
FALCON 9 R/B 4.3 08:22:26 10° WNW 08:47:26 44° SW 08:54:37 10° SSE
SL-16 R/B 3.6 08:45:29 20° W 08:47:48 26° WNW 08:52:28 10° N
CZ-3A R/B 4.3 08:46:12 18° S 08:48:37 23° SE 09:00:36 10° E
Cosmos 2369 Rocket 2.4 08:43:20 10° NNW 08:48:56 73° ENE 08:54:29 10° SSE
Cosmos 2251 Rocket 3.6 08:43:52 10° NNW 08:49:09 79° ENE 08:54:27 10° SSE
Cosmos 1271 Rocket 3.0 08:48:27 10° NNW 08:52:07 44° W 08:52:48 40° SW
Cosmos 1656 Rocket 4.0 08:51:12 10° NNW 08:56:35 66° ENE 09:01:58 10° SSE
CZ-3 R/B 4.5 07:59:35 10° WSW 08:57:03 65° S 09:10:20 10° ESE
COSMOS 2441 4.5 08:52:30 10° N 08:57:17 61° WNW 08:59:45 28° SW
COSMOS 2455 3.7 08:57:22 22° WSW 09:00:35 37° NW 09:06:10 10° NNE
MOS 1 Rocket 4.3 09:00:29 23° W 09:00:37 23° W 09:04:04 10° NW
Cosmos 2181 Rocket 4.1 08:57:18 13° S 09:02:59 79° E 09:09:10 10° N
Cosmos 962 Rocket 4.4 08:57:47 10° N 09:03:54 74° W 09:09:59 10° S
Cosmos 1606 Rocket 3.4 09:00:14 10° N 09:04:39 79° W 09:08:22 14° S
MOS 1-B Rocket 4.0 09:01:41 10° SSE 09:07:18 75° ENE 09:12:58 10° N
Cosmos 1603 3.7 09:07:22 22° SSW 09:11:01 70° WNW 09:16:41 10° NNE
Helios 1B rocket 2.3 09:07:08 10° NNE 09:11:13 86° WNW 09:14:02 19° SSW
ALOS 2.8 09:08:50 10° NNE 09:13:25 56° E 09:17:59 10° S
Cosmos 1328 4.1 09:14:11 25° SW 09:16:11 48° W 09:20:02 10° N
Meteor 1-29 4.4 09:15:47 10° NNE 09:18:46 33° E 09:21:45 10° SSE
Lacrosse 5 4.1 09:15:58 10° WNW 09:19:10 16° NNW 09:22:23 10° NNE
CZ-2C R/B 2.8 09:14:07 10° NNE 09:19:11 64° E 09:24:05 10° S
Helios 1A 4.3 09:19:41 20° WSW 09:20:31 21° W 09:23:45 10° NW
Genesis I 4.5 09:17:04 10° NNW 09:20:59 46° NE 09:24:48 10° SE
Lacrosse 5 rocket 3.7 09:20:45 10° WNW 09:22:45 13° NNW 09:24:46 10° N
Okean 1-7 Rocket 4.4 09:18:29 10° SSE 09:22:46 51° E 09:27:02 10° NNE
Cosmos 1420 Rocket 4.2 09:20:16 11° S 09:25:14 72° ESE 09:30:25 10° NNE
Lacrosse 4 Rocket 2.3 09:27:44 10° S 09:31:52 46° ESE 09:35:56 10° NE
Cosmos 1371 Rocket 4.0 09:30:20 14° SSW 09:34:46 66° WNW 09:39:56 10° NNE
Cosmos 407 Rocket 3.5 09:30:39 10° NNW 09:35:56 70° WSW 09:41:08 10° S
Cosmos 1892 Rocket 4.2 09:33:24 15° SW 09:36:43 40° WNW 09:40:57 10° N
Meteor 1-11 4.4 09:34:49 10° SSW 09:40:35 65° W 09:46:21 10° N
Cosmos 1825 2.7 09:37:45 10° S 09:41:24 59° E 09:45:04 10° NNE
GPS 2-04 Rocket1 2.7 09:39:12 16° WSW 09:41:44 48° SSE 09:45:10 10° E
Cosmos 1943 4.1 09:37:59 14° WSW 09:42:22 34° WNW 09:47:32 10° N
METEOR-M 4.5 09:38:12 10° NNE 09:43:34 69° ESE 09:48:52 10° S
Cosmos 1726 Rocket 4.2 09:39:59 10° NNW 09:44:00 35° W 09:47:58 10° SSW
Cosmos 1140 Rocket 3.7 09:40:58 10° NNW 09:46:03 52° WSW 09:51:06 10° S
Cosmos 2366 rocket 4.1 09:41:27 10° NNW 09:47:27 57° W 09:53:30 10° SSW
SL-08 R/B 4.1 09:43:51 10° SSE 09:48:19 55° ENE 09:52:52 10° N
ATLAS 2A CENTAUR R/B 4.0 09:33:53 10° WSW 09:48:35 41° S 09:54:35 10° ESE
Cosmos 1633 4.5 09:46:22 10° SSE 09:49:28 29° E 09:52:35 10° NNE
SeaSat 1 2.6 09:45:05 10° NNE 09:50:02 77° ESE 09:54:57 10° SSW
SL-8 Rocket 4.5 09:48:37 10° NNW 09:54:28 41° W 10:00:17 10° SSW
[s.n.52708] 4.1 09:53:20 10° W 09:55:50 28° NW 09:58:20 10° NNE
[s.n.52707] 4.1 09:53:28 10° W 09:55:57 28° NW 09:58:27 10° NNE
[s.n.52703] 4.1 09:53:35 10° W 09:56:04 28° NW 09:58:35 10° NNE
[s.n.52705] 4.1 09:53:41 10° W 09:56:11 28° NW 09:58:41 10° NNE
[s.n.52706] 4.1 09:53:49 10° W 09:56:18 27° NW 09:58:48 10° NNE
[s.n.52701] 4.1 09:53:56 10° W 09:56:25 27° NW 09:58:55 10° NNE
[s.n.52704] 4.1 09:54:03 10° W 09:56:32 27° NW 09:59:02 10° NNE
[s.n.52699] 4.1 09:54:10 10° W 09:56:39 27° NW 09:59:09 10° NNE
[s.n.52702] 4.1 09:54:17 10° W 09:56:46 27° NW 09:59:16 10° NNE
Cosmos 1484 Rocket 3.4 09:53:02 10° NNE 09:56:52 59° E 10:00:44 10° S
[s.n.52697] 4.1 09:54:24 10° W 09:56:53 27° NW 09:59:23 10° NNE
[s.n.52700] 4.1 09:54:31 10° W 09:57:00 27° NW 09:59:29 10° NNE
[s.n.52695] 4.1 09:54:38 10° W 09:57:07 27° NW 09:59:37 10° NNE
[s.n.52698] 4.1 09:54:45 10° W 09:57:14 27° NW 09:59:44 10° NNE
[s.n.52693] 4.1 09:54:53 10° W 09:57:22 27° NW 09:59:51 10° NNE
[s.n.52696] 4.1 09:55:00 10° W 09:57:28 27° NW 09:59:58 10° NNE
[s.n.52691] 4.1 09:55:07 10° W 09:57:35 27° NW 10:00:05 10° NNE
[s.n.52689] 4.2 09:55:15 10° W 09:57:44 27° NW 10:00:12 10° NNE
[s.n.52694] 4.2 09:55:22 10° W 09:57:50 27° NW 10:00:19 10° NNE
[s.n.52692] 4.2 09:55:29 10° W 09:57:57 27° NW 10:00:26 10° NNE
[s.n.52687] 4.2 09:55:36 10° W 09:58:04 26° NW 10:00:33 10° NNE
IRS-1C 4.4 09:52:56 10° N 09:58:08 55° WNW 10:03:20 10° SSW
[s.n.52685] 4.2 09:55:43 10° W 09:58:11 26° NW 10:00:40 10° NNE
[s.n.52690] 4.2 09:55:50 10° W 09:58:18 26° NW 10:00:47 10° NNE
[s.n.52688] 4.2 09:55:57 10° W 09:58:25 26° NW 10:00:54 10° NNE
[s.n.52683] 4.2 09:56:04 10° W 09:58:32 26° NW 10:01:01 10° NNE
Cosmos 1892 3.3 09:55:08 10° SSW 09:58:39 37° W 10:02:12 10° N
[s.n.52686] 4.2 09:56:12 10° W 09:58:40 26° NW 10:01:08 10° NNE
[s.n.52681] 4.2 09:56:19 10° W 09:58:47 26° NW 10:01:15 10° NNE
[s.n.52679] 4.2 09:56:26 10° W 09:58:54 26° NW 10:01:22 10° NNE
[s.n.52684] 4.2 09:56:34 10° W 09:59:01 26° NW 10:01:29 10° NNE
[s.n.52682] 4.2 09:56:41 10° W 09:59:08 26° NW 10:01:36 10° NNE
[s.n.52677] 4.2 09:56:48 10° W 09:59:15 26° NW 10:01:44 10° NNE
[s.n.52680] 4.2 09:56:56 10° W 09:59:23 26° NW 10:01:51 10° NNE
[s.n.52675] 4.2 09:57:03 10° W 09:59:30 26° NW 10:01:58 10° NNE
[s.n.52678] 4.2 09:57:10 10° W 09:59:37 26° NW 10:02:05 10° NNE
Cosmos 1954 Rocket 4.2 09:54:21 10° NNW 09:59:42 82° ENE 10:05:00 10° SSE
[s.n.52673] 4.2 09:57:18 10° W 09:59:45 26° NW 10:02:13 10° NNE
[s.n.52676] 4.2 09:57:25 10° W 09:59:52 26° NW 10:02:20 10° NNE
[s.n.52671] 4.2 09:57:34 10° W 09:59:59 25° NW 10:02:27 10° NNE
[s.n.52669] 4.2 09:57:41 10° W 10:00:07 25° NW 10:02:33 10° NNE
[s.n.52674] 4.2 09:57:47 10° W 10:00:14 25° NW 10:02:41 10° NNE
[s.n.52672] 4.2 09:57:54 10° W 10:00:20 25° NW 10:02:48 10° NNE
[s.n.52667] 4.2 09:58:03 10° W 10:00:29 25° NW 10:02:55 10° NNE
[s.n.52665] 4.3 09:58:10 10° W 10:00:36 25° NW 10:03:03 10° NNE
[s.n.52670] 4.3 09:58:17 10° W 10:00:44 25° NW 10:03:10 10° NNE
[s.n.52668] 4.3 09:58:25 10° W 10:00:51 25° NW 10:03:17 10° NNE
[s.n.52666] 4.3 09:58:32 10° W 10:00:59 25° NW 10:03:25 10° NNE
[s.n.52663] 4.3 09:58:40 10° W 10:01:05 25° NW 10:03:32 10° NNE
[s.n.52662] 4.3 09:58:47 10° W 10:01:13 25° NW 10:03:39 10° NNE
[s.n.52664] 4.3 09:58:55 10° W 10:01:20 25° NW 10:03:47 10° NNE
[s.n.52661] 4.3 09:59:03 10° W 10:01:28 25° NW 10:03:54 10° NNE
[s.n.52660] 4.3 09:59:10 10° W 10:01:35 25° NW 10:04:01 10° NNE
[s.n.52656] 4.3 09:59:18 10° W 10:01:43 25° NW 10:04:08 10° NNE
[s.n.52658] 4.3 09:59:26 10° W 10:01:50 25° NW 10:04:17 10° NNE
[s.n.52659] 4.3 09:59:32 10° W 10:01:57 25° NW 10:04:24 10° NNE
[s.n.52657] 4.3 09:59:41 10° W 10:02:05 24° NW 10:04:31 10° NNE
FENGYUN 3A 4.3 10:00:25 10° N 10:05:22 39° WNW 10:10:18 10° SW
Cosmos 1408 3.9 10:05:25 10° SW 10:08:22 23° WNW 10:11:19 10° NNW
DELTA 2 DEB (DPAF) 4.4 10:06:10 10° S 10:10:26 48° W 10:14:43 10° NNW
ARIANE 5 R/B 2.9 10:05:58 10° N 10:10:49 48° WNW 10:15:36 10° SW
